User: anonymous   Login
Location: Unspecified
(0.0000°N, 0.0000°E)
Time: 23:22:56
(UTC+00:00)
Language:

STARLINK-32827 - Orbit

View from above orbital plane
View from above orbital plane
View from above satellite
View from above satellite

Ground track
Ground track

The orbit is defined by the following mean orbital elements,

1 63043U          26145.37207970 +.00000000 +00000-0 +69649-3 0 00009
2 63043  53.1592 274.2745 0000835  49.1895 310.9180 15.34429498    07
Epoch (UTC): 25 May 2026 08:55:47
Eccentricity: 0.0000835
inclination: 53.1592°
perigee height: 462 km
apogee height: 463 km
right ascension of ascending node: 274.2745°
argument of perigee: 49.1895°
revolutions per day: 15.34429498
mean anomaly at epoch: 310.9180°

The dashed part of the orbit path shows where the satellite is in the earth's shadow,  

DLR